Retour au catalogue

STARLINK-35661

ActifCommunicationsVLEO
NORAD 66387·PAYLOAD·🇺🇸 United States

Lancé Nov 8, 2025 depuis Cape Canaveral Space Force Station

Loading…

Prochains Passages (prochaines 24 heures)

TLE

FraisSource: CelesTrak SupGP

Époque: Sep 14, 2026, 21:21 UTC

1 66387C 25257H   26257.89006944  .00031342  00000+0  92628-3 0  2572
2 66387  53.1590  53.7027 0001202  80.8715 309.1036 15.34365485    10

Suivez STARLINK-35661 en temps réel avec AllMySat

Download on the App Store